User: anonymous
Location: Oshawa
(43.9000°N, 78.8670°W)
Time: 09:33:20
(UTC-04:00)
Language:

Iridium 98 - Orbit

View from above orbital plane
View from above orbital plane
View from above satellite
View from above satellite

Ground track
Ground track

The orbit data is extracted from the following two-line orbital elements,

1 27451U 02031B   14259.06627339  .00000182  00000-0  58072-4 0  4871
2 27451 086.3915 082.4021 0001920 109.6436 005.0342 14.34220216647232
Epoch (UTC): 16 September 2014 01:35:26
Eccentricity: 0.0001920
inclination: 86.3915°
perigee height: 776 km
apogee height: 779 km
right ascension of ascending node: 82.4021°
argument of perigee: 109.6436°
revolutions per day: 14.34220216
mean anomaly at epoch: 5.0342°
orbit number at epoch: 64723

The dashed part of the orbit path shows where the satellite is in the earth's shadow,  

DLR